Regional Weather Roundup
Issued by NWS Memphis, TN

Home | Current Version | Previous Version | Text Only | Print | Product List | Glossary On
Versions: 1 2 3 4 5 6 7 8 9 10 11 12 13 14 15 16 17 18 19 20 21 22 23 24 25 26 27 28 29 30 31 32 33 34 35 36 37 38 39 40 41 42 43 44 45 46 47 48 49 50
000
ASUS44 KMEG 220010
RWRMEG
MEMPHIS CWA HOURLY WEATHER ROUNDUP
NATIONAL WEATHER SERVICE MEMPHIS TN
600 PM CST TUE FEB 21 2017

...WEST TENNESSEE...

CITY           SKY/WX    TMP DP  RH WIND       PRES   REMARKS
MEMPHIS INTL   MOCLDY    63  59  87 SE7       29.85S
6HR MIN TEMP:  63; 6HR MAX TEMP:  67; 6HR PCP: TRACE;

NWS MEMPHIS      N/A     62 N/A N/A MISG        N/A
JACKSON        CLOUDY    61  60  97 E5        29.90R
6HR MIN TEMP:  61; 6HR MAX TEMP:  65; 6HR PCP:  0.03;

BOLIVAR        CLOUDY    61  59  94 E5        29.88S
UNION CITY     CLOUDY   N/A N/A N/A CALM      29.91S
PARIS          CLOUDY    59  55  88 N3        29.92S
HUNTINGDON     CLOUDY    61  61 100 CALM      29.91R


...EASTERN ARKANSAS...

CITY           SKY/WX    TMP DP  RH WIND       PRES   REMARKS
JONESBORO      CLOUDY    63  59  87 CALM      29.86R
6HR MIN TEMP:  63; 6HR MAX TEMP:  67; 6HR PCP: TRACE;

WEST MEMPHIS   CLOUDY    63  60  90 SE7       29.85R
6HR MIN TEMP:  62; 6HR MAX TEMP:  66; 6HR PCP: TRACE;

BATESVILLE     CLOUDY    59  57  94 CALM      29.88R
6HR MIN TEMP:  59; 6HR MAX TEMP:  59; 6HR PCP:  0.06;

NEWPORT        MOCLDY    62  60  93 N5        29.87R
6HR MIN TEMP:  59; 6HR MAX TEMP:  67;

WALNUT RIDGE   MOCLDY    63  57  82 NE6       29.88R
6HR MIN TEMP:  59; 6HR MAX TEMP:  66; 6HR PCP:  0.11;

BLYTHEVILLE    CLOUDY    62  60  93 E7        29.89R
6HR MIN TEMP:  62; 6HR MAX TEMP:  67;

SEARCY         CLOUDY    61  61 100 NW5       29.86F
6HR MIN TEMP:  61; 6HR MAX TEMP:  63; 6HR PCP:  0.06;

STUTTGART      CLEAR     63  52  67 S5        29.85R
6HR MIN TEMP:  63; 6HR MAX TEMP:  64;

PINE BLUFF     MOCLDY    60  59  96 SW5       29.84S
6HR MIN TEMP:  60; 6HR MAX TEMP:  66; 6HR PCP:  0.05;

MONTICELLO     CLOUDY    61  58  90 SW3       29.85R
6HR MIN TEMP:  61; 6HR MAX TEMP:  66; 6HR PCP:  0.02;



...NORTH MISSISSIPPI...

CITY           SKY/WX    TMP DP  RH WIND       PRES   REMARKS
TUPELO         CLOUDY    60  58  92 E5        29.88S
6HR MIN TEMP:  60; 6HR MAX TEMP:  62; 6HR PCP:  0.02;

OXFORD         CLOUDY    59  57  94 E5        29.88R
BATESVILLE     MOCLDY    62  58  88 CALM      29.86R
6HR MIN TEMP:  61; 6HR MAX TEMP:  65; 6HR PCP:  0.09;

OLIVE BRANCH   MOCLDY   N/A N/A N/A E3        29.86R
TUNICA         PTCLDY    63  55  77 CALM      29.85S
CORINTH        DRIZZLE   61  59  94 E5        29.89S
GREENWOOD      MOCLDY    62  57  83 CALM      29.85R
6HR MIN TEMP:  61; 6HR MAX TEMP:  69; 6HR PCP:  0.02;

COLUMBUS       DRIZZLE   61  59  94 SE5       29.88R
6HR MIN TEMP:  60; 6HR MAX TEMP:  62; 6HR PCP:  0.05;

GOLDEN TRIANGL CLOUDY    61  55  82 SE12      29.85R


...SOUTHEAST MISSOURI...

CITY           SKY/WX    TMP DP  RH WIND       PRES   REMARKS
KENNETT        CLOUDY    63  61  94 E6        29.88R
WEST PLAINS    CLOUDY    58  56  93 E5        29.93R
6HR MIN TEMP:  58; 6HR MAX TEMP:  61; 6HR PCP: TRACE;

POPLAR BLUFF   CLOUDY    61  59  93 E3        29.89R
6HR MIN TEMP:  60; 6HR MAX TEMP:  62; 6HR PCP: TRACE;

CAPE GIRARDEAU CLOUDY    61  55  81 CALM      29.91R
6HR MIN TEMP:  60; 6HR MAX TEMP:  64;



...NORTHWEST ALABAMA...

CITY           SKY/WX    TMP DP  RH WIND       PRES   REMARKS
MUSCLE SHOALS  LGT RAIN  59  56  89 E10       29.91F
6HR MIN TEMP:  59; 6HR MAX TEMP:  67; 6HR PCP:  0.09;



...MIDDLE TENNESSEE...

CITY           SKY/WX    TMP DP  RH WIND       PRES   REMARKS
NASHVILLE      CLOUDY    62  54  74 SE9       29.96R
6HR MIN TEMP:  62; 6HR MAX TEMP:  71; 6HR PCP: TRACE;

CLARKSVILLE    CLOUDY    65  53  65 SE12      29.92R
6HR MIN TEMP:  65; 6HR MAX TEMP:  72;

COLUMBIA       CLOUDY   N/A N/A N/A SE3       29.93R


...WESTERN KENTUCKY...

CITY           SKY/WX    TMP DP  RH WIND       PRES   REMARKS
PADUCAH        CLOUDY    60  55  83 SE5       29.91R
6HR MIN TEMP:  60; 6HR MAX TEMP:  64; 6HR PCP: TRACE;

FORT CAMPBELL  CLOUDY    67  54  62 SE10      29.91R
6HR MIN TEMP:  67; 6HR MAX TEMP:  72;



...CENTRAL ARKANSAS...

CITY           SKY/WX    TMP DP  RH WIND       PRES   REMARKS
LITTLE ROCK    LGT RAIN  60  60 100 N3        29.85R FOG
6HR MIN TEMP:  60; 6HR MAX TEMP:  62; 6HR PCP:  0.12;



SKY/WX REPORTED AS FAIR MEANS FEW OR NO CLOUDS BELOW
12 THOUSAND FEET.





USA.gov is the U.S. government's official web portal to all federal, state and local government web resources and services.